[[{"header":{"parameterUnit":"m.s-1","parameterCategory":1,"la1":30.2991,"la2":30.254,"lo1":-89.0895,"lo2":-89.0444,"dy":0.0017,"dx":0.0017,"nx":28,"ny":28,"refTime":"2025-03-28T03:00:00:Z","depth":0,"parameterNumber":2,"parameterNumberName":"U-component_of_WINDS"},"data":[0,0,0,0,0,0,0,0,0,0,0,0,0,0,0,0,0,0,0,0,0,0,0,0,0,0,0,0,0,0,0,0,0,0,0,0,0,0,0,0,0,0,0,0,0,0,0,0,0,0,0,0,0,0,0,0,0,0,-5.2166,-5.2168,0,-5.2302,-5.2304,-5.2305,-5.2313,-5.2312,-5.231,-5.2309,-5.2449,-5.2454,-5.2459,0,0,0,0,0,0,0,0,0,0,0,0,0,-5.1917,-5.1921,-5.2166,-5.2168,-5.217,-5.2302,-5.2304,-5.2306,-5.2314,-5.2312,-5.231,-5.2308,-5.2447,-5.2453,-5.246,0,0,0,0,0,0,0,0,0,0,0,0,0,-5.2036,-5.1923,-5.2166,-5.219,-5.2193,-5.2302,-5.2304,-5.2306,-5.2314,-5.2312,-5.2309,-5.2307,-5.2445,-5.2453,-5.2461,-5.2555,0,0,-5.2484,-5.2488,0,0,0,0,0,0,0,0,-5.2029,-5.2045,-5.2185,-5.2188,-5.2192,-5.2288,-5.2267,-5.239,-5.2315,-5.2268,-5.2309,-5.2306,-5.2398,-5.2409,-5.244,-5.2562,-5.2568,-5.2485,-5.249,-5.2493,-5.2495,0,0,0,0,0,0,0,-5.2021,-5.2039,-5.222,-5.2187,-5.2191,-5.2194,-5.2209,-5.229,-5.2344,-5.2272,-5.2273,-5.2289,-5.2399,-5.2432,-5.2443,-5.257,-5.2485,-5.2492,-5.2496,-5.2499,-5.2777,-5.278,0,0,0,0,0,0,-5.2008,-5.2032,-5.2216,-5.2224,-5.2103,-5.2201,-5.2217,-5.226,-5.2343,-5.2354,-5.2291,-5.2289,-5.242,-5.2434,-5.2448,-5.2564,-5.2493,-5.25,-5.2505,-5.2775,-5.2778,-5.2781,0,0,0,0,0,0,-5.2002,-5.2024,-5.221,-5.2129,-5.2153,-5.2207,-5.2256,-5.2264,-5.2297,-5.2358,-5.2367,-5.2314,-5.2419,-5.2437,-5.2529,-5.2569,-5.2504,-5.2511,-5.2772,-5.2776,-5.278,-5.2797,0,0,0,0,0,0,-5.1995,-5.2022,-5.2058,-5.2129,-5.2157,-5.2288,-5.2258,-5.2268,-5.231,-5.2309,-5.2382,-5.2392,-5.2418,-5.2517,-5.2536,-5.2579,-5.2517,-5.2768,-5.2773,-5.2778,-5.2793,-5.2801,-5.2808,0,0,0,0,0,-5.1986,-5.2057,-5.2059,-5.2081,-5.2202,-5.229,-5.2306,-5.2334,-5.2313,-5.235,-5.2389,-5.239,-5.2562,-5.2526,-5.2548,-5.2593,-5.2766,-5.2772,-5.2778,-5.279,-5.28,-5.2808,0,0,0,0,0,0,-5.1989,-5.2067,-5.207,-5.2166,-5.2221,-5.2291,-5.2338,-5.2344,-5.2406,-5.2402,-5.2435,-5.2452,-5.2543,-5.2578,-5.2536,-5.269,-5.2662,-5.2673,-5.2663,-5.2673,-5.2681,-5.267,-5.2523,0,0,0,0,0,-5.2,-5.2064,-5.213,-5.2208,-5.2236,-5.2282,-5.2321,-5.2339,-5.2397,-5.2421,-5.2467,-5.2524,-5.2591,-5.2635,-5.27,-5.2799,-5.2816,-5.2842,-5.2849,-5.2855,-5.2864,-5.292,-5.2932,-5.2801,-5.2801,-5.2801,0,0,-5.2025,-5.2076,-5.2114,-5.221,-5.2255,-5.2321,-5.2302,-5.2372,-5.2422,-5.2432,-5.252,-5.2557,-5.2623,-5.2719,-5.2764,-5.2751,-5.2904,-5.2863,-5.2867,-5.2873,-5.2927,-5.2939,-5.295,-5.2805,-5.2805,-5.2804,0,0,-5.2103,-5.2149,-5.2219,-5.2265,-5.2333,-5.2364,-5.2381,-5.2451,-5.2475,-5.2565,-5.2574,-5.2634,-5.2749,-5.2796,-5.2835,-5.2934,-5.2937,-5.2955,-5.2994,-5.3048,-5.3058,-5.3068,-5.3103,-5.3115,-5.2964,-5.2964,-5.2964,0,-5.2125,-5.2225,-5.2255,-5.2325,-5.2368,-5.238,-5.2453,-5.2496,-5.2582,-5.2611,-5.2596,-5.2742,-5.2787,-5.2895,-5.2919,-5.2951,-5.2971,-5.2945,-5.3054,-5.3064,-5.3073,-5.3107,-5.312,-5.2965,-5.2965,-5.2965,-5.2965,0,-5.2248,-5.2317,-5.2366,-5.2449,-5.2497,-5.2568,-5.261,-5.2656,-5.267,-5.2703,-5.2795,-5.2851,-5.2928,-5.2955,-5.297,-5.3066,-5.3056,-5.3047,-5.3019,-5.3087,-5.3119,-5.3132,-5.2968,-5.2967,-5.2967,-5.2966,0,0,-5.2329,-5.2429,-5.2447,-5.2485,-5.2562,-5.2616,-5.2689,-5.2765,-5.2803,-5.2863,-5.2925,-5.3023,-5.3017,-5.3061,-5.3081,-5.3129,-5.3205,-5.3115,-5.3118,-5.3129,-5.3314,-5.3318,-5.3333,-5.3208,-5.3211,-5.3213,-5.3308,0,-5.2415,-5.2543,-5.2574,-5.2684,-5.2749,-5.2763,-5.2827,-5.2882,-5.2916,-5.2976,-5.3014,-5.3082,-5.3069,-5.3096,-5.3144,-5.3185,-5.3242,-5.3179,-5.3266,-5.3269,-5.3247,-5.335,-5.3354,-5.3441,-5.3321,-5.3323,-5.3325,0,-5.2532,-5.2594,-5.2711,-5.2781,-5.281,-5.2866,-5.2938,-5.2996,-5.3059,-5.3081,-5.3131,-5.3148,-5.3225,-5.3195,-5.3302,-5.3259,-5.3297,-5.3323,-5.3327,-5.3335,-5.3299,-5.3359,-5.347,-5.3482,-5.3345,-5.3343,-5.3342,0,-5.2578,-5.2692,-5.2777,-5.2809,-5.2893,-5.2933,-5.297,-5.3031,-5.3075,-5.3139,-5.3168,-5.324,-5.3279,-5.3336,-5.3372,-5.3346,-5.3477,-5.3449,-5.3496,-5.3495,-5.3521,-5.3519,-5.3638,-5.3548,-5.3548,-5.3548,-5.3548,0,-5.267,-5.2741,-5.2798,-5.285,-5.2931,-5.2966,-5.3045,-5.3082,-5.3137,-5.3197,-5.3216,-5.3272,-5.3317,-5.338,-5.3409,-5.3493,-5.3511,-5.3531,-5.3537,-5.3528,-5.3526,-5.3552,-5.3546,-5.3551,-5.3551,-5.355,-5.3549,0,-5.2734,-5.2776,-5.2869,-5.2942,-5.2962,-5.3017,-5.308,-5.3132,-5.3167,-5.3243,-5.3263,-5.3318,-5.3394,-5.3436,-5.353,-5.355,-5.3644,-5.3649,-5.3622,-5.3625,-5.3669,-5.3664,-5.3809,-5.3829,-5.3727,-5.3728,-5.3729,0,-5.2789,-5.2844,-5.2923,-5.2964,-5.3002,-5.3069,-5.3114,-5.3152,-5.3198,-5.3276,-5.3319,-5.3395,-5.3458,-5.3578,-5.3627,-5.37,-5.3705,-5.3751,-5.3716,-5.3705,-5.3705,-5.37,-5.3706,-5.3756,-5.3757,-5.3758,-5.3758,0,-5.2882,-5.29,-5.2964,-5.3036,-5.3089,-5.3148,-5.3206,-5.3239,-5.3287,-5.3339,-5.3416,-5.3465,-5.3562,-5.3638,-5.3715,-5.3754,-5.3765,-5.3769,-5.3784,-5.3774,-5.3756,-5.3766,-5.3637,-5.3765,-5.3764,-5.3764,-5.3764,-5.3763,-5.2943,-5.2992,-5.3056,-5.3127,-5.3175,-5.3229,-5.3281,-5.3323,-5.3388,-5.3469,-5.3489,-5.357,-5.3635,-5.3739,-5.3781,-5.3846,-5.3838,-5.3859,-5.3864,-5.3868,-5.3869,-5.3748,-5.3861,-5.386,-5.386,-5.386,-5.386,0,-5.3036,-5.3078,-5.3143,-5.3224,-5.328,-5.3286,-5.3351,-5.3397,-5.3468,-5.3528,-5.3589,-5.3679,-5.3753,-5.3809,-5.3885,-5.3926,-5.3933,-5.3945,-5.3941,-5.395,-5.3873,-5.3852,-5.3938,-5.3938,-5.3938,-5.3938,-5.3938,-5.3938,-5.309,-5.3175,-5.3201,-5.331,-5.3352,-5.3431,-5.3468,-5.3519,-5.3566,-5.3664,-5.3726,-5.3762,-5.3821,-5.3901,-5.397,-5.3985,-5.4012,-5.4023,-5.4038,-5.3964,-5.3956,-5.3948,-5.3928,-5.4029,-5.4029,-5.411,-5.4111,-5.4111]},{"header":{"parameterUnit":"m.s-1","parameterCategory":1,"la1":30.2991,"la2":30.254,"lo1":-89.0895,"lo2":-89.0444,"dy":0.0017,"dx":0.0017,"nx":28,"ny":28,"refTime":"2025-03-28T03:00:00:Z","depth":0,"parameterNumber":3,"parameterNumberName":"V-component_of_WINDS"},"data":[0,0,0,0,0,0,0,0,0,0,0,0,0,0,0,0,0,0,0,0,0,0,0,0,0,0,0,0,0,0,0,0,0,0,0,0,0,0,0,0,0,0,0,0,0,0,0,0,0,0,0,0,0,0,0,0,0,0,3.1672,3.1673,0,3.176,3.1761,3.1762,3.1823,3.1823,3.1824,3.1824,3.1912,3.1914,3.1916,0,0,0,0,0,0,0,0,0,0,0,0,0,3.1556,3.1558,3.1672,3.1673,3.1674,3.176,3.1761,3.1763,3.1823,3.1823,3.1824,3.1825,3.1911,3.1914,3.1916,0,0,0,0,0,0,0,0,0,0,0,0,0,3.1621,3.1559,3.1672,3.1715,3.172,3.176,3.1761,3.1763,3.1823,3.1824,3.1824,3.1825,3.1911,3.1913,3.1916,3.192,0,0,3.1925,3.1926,0,0,0,0,0,0,0,0,3.1618,3.1626,3.1707,3.1712,3.1717,3.1781,3.1753,3.1815,3.1823,3.1783,3.1824,3.1825,3.1868,3.1874,3.1889,3.1924,3.1928,3.1925,3.1927,3.1928,3.1929,0,0,0,0,0,0,0,3.1613,3.1622,3.1707,3.1708,3.1715,3.173,3.174,3.1765,3.1821,3.1787,3.1792,3.1801,3.1871,3.1886,3.1892,3.1929,3.1925,3.1928,3.1929,3.193,3.1976,3.1975,0,0,0,0,0,0,3.1602,3.1618,3.1704,3.171,3.1668,3.1731,3.1743,3.176,3.182,3.183,3.1801,3.1804,3.1881,3.1888,3.1895,3.1906,3.1928,3.1931,3.1932,3.1976,3.1976,3.1975,0,0,0,0,0,0,3.1599,3.1609,3.1701,3.1665,3.1678,3.1733,3.1752,3.1761,3.1777,3.1831,3.1841,3.1806,3.1882,3.1891,3.1914,3.191,3.1932,3.1935,3.1977,3.1976,3.1975,3.1927,0,0,0,0,0,0,3.1596,3.1608,3.1609,3.1665,3.168,3.1718,3.1751,3.1763,3.1782,3.1787,3.1839,3.1848,3.1883,3.191,3.1917,3.1914,3.1937,3.1977,3.1976,3.1976,3.1929,3.1924,3.192,0,0,0,0,0,3.1591,3.1591,3.1609,3.1619,3.1683,3.1718,3.1726,3.1767,3.1782,3.1784,3.1819,3.1847,3.1909,3.1912,3.1921,3.1918,3.1978,3.1977,3.1976,3.1931,3.1925,3.192,0,0,0,0,0,0,3.1531,3.1599,3.162,3.1637,3.1672,3.1728,3.1732,3.1759,3.179,3.1793,3.1842,3.1853,3.1872,3.1897,3.1899,3.1927,3.1947,3.1948,3.191,3.1905,3.1901,3.1895,3.1939,0,0,0,0,0,3.152,3.1544,3.1601,3.1611,3.1627,3.1677,3.1693,3.1722,3.176,3.1774,3.1811,3.1845,3.1874,3.189,3.1919,3.1933,3.1946,3.1936,3.1932,3.1928,3.1928,3.1941,3.1938,3.1971,3.1971,3.1971,0,0,3.1497,3.1537,3.1548,3.16,3.163,3.1653,3.1688,3.171,3.1729,3.1777,3.1803,3.1831,3.1873,3.1893,3.1903,3.1914,3.1922,3.1927,3.1923,3.1925,3.1939,3.1936,3.1933,3.197,3.1971,3.1971,0,0,3.1468,3.15,3.1513,3.1543,3.159,3.1623,3.1626,3.168,3.1701,3.1728,3.1766,3.1788,3.1834,3.1864,3.1884,3.1871,3.1898,3.1878,3.1856,3.1868,3.1865,3.1863,3.186,3.1858,3.1878,3.1878,3.1878,0,3.1434,3.1471,3.1516,3.1538,3.156,3.1607,3.1622,3.1649,3.1701,3.1716,3.1728,3.179,3.1821,3.185,3.1847,3.1862,3.1868,3.1873,3.1862,3.186,3.1859,3.1857,3.1856,3.1875,3.1876,3.1876,3.1876,0,3.1428,3.1453,3.1458,3.151,3.1533,3.1551,3.1599,3.1617,3.1645,3.1678,3.1706,3.1746,3.1785,3.1793,3.1819,3.1827,3.1833,3.1853,3.1874,3.1853,3.1852,3.1851,3.1872,3.1873,3.1873,3.1874,0,0,3.1361,3.1441,3.1442,3.1468,3.1524,3.1544,3.1565,3.1605,3.162,3.1655,3.1675,3.1715,3.1735,3.1759,3.1789,3.1799,3.1789,3.1819,3.182,3.1813,3.1803,3.1788,3.1787,3.1807,3.1807,3.1807,3.18,0,3.1342,3.1383,3.1426,3.1452,3.1477,3.1524,3.1543,3.1579,3.1611,3.1637,3.1672,3.17,3.1723,3.1739,3.1751,3.1788,3.1788,3.1789,3.1827,3.1828,3.1816,3.1786,3.177,3.1761,3.18,3.1799,3.1799,0,3.1324,3.136,3.1389,3.1446,3.1458,3.1474,3.1516,3.154,3.1584,3.1606,3.1635,3.1668,3.1693,3.1711,3.1748,3.1748,3.1766,3.1787,3.1788,3.1794,3.1813,3.1792,3.1759,3.1758,3.1799,3.1799,3.1799,0,3.1276,3.1331,3.1357,3.1377,3.1443,3.1454,3.1482,3.1526,3.1548,3.1584,3.16,3.1638,3.1659,3.1688,3.1731,3.174,3.1764,3.1785,3.1784,3.1783,3.1787,3.1787,3.1758,3.1797,3.1797,3.1797,3.1797,0,3.1251,3.1267,3.1336,3.1352,3.1372,3.1422,3.1441,3.1473,3.1513,3.1536,3.1578,3.1599,3.1654,3.1682,3.1716,3.1743,3.1751,3.1771,3.178,3.1768,3.1765,3.1781,3.1783,3.1797,3.1797,3.1797,3.1797,0,3.12,3.1247,3.1278,3.134,3.1355,3.1368,3.1421,3.1438,3.1474,3.1503,3.1513,3.1568,3.1603,3.1649,3.1698,3.1721,3.1744,3.1757,3.173,3.1735,3.1733,3.1733,3.1714,3.1715,3.1751,3.1751,3.1751,0,3.1181,3.1195,3.1259,3.1279,3.1306,3.1336,3.1361,3.1411,3.1434,3.1486,3.1498,3.1537,3.1571,3.1625,3.1669,3.1708,3.1723,3.1714,3.1729,3.1718,3.1725,3.1725,3.1727,3.171,3.1709,3.1709,3.1708,0,3.1144,3.1167,3.12,3.1243,3.1271,3.1306,3.1343,3.1356,3.1415,3.1439,3.1477,3.1503,3.1555,3.1594,3.1639,3.1668,3.1698,3.1704,3.1706,3.1694,3.1679,3.1689,3.1721,3.1704,3.1704,3.1704,3.1705,3.1705,3.111,3.1126,3.1175,3.1211,3.1245,3.128,3.13,3.134,3.1372,3.1419,3.1447,3.1484,3.153,3.1594,3.1622,3.1652,3.1664,3.1666,3.1667,3.1668,3.1665,3.1673,3.166,3.1661,3.1661,3.1661,3.1661,0,3.1077,3.1111,3.1144,3.1196,3.1226,3.1253,3.1297,3.1319,3.1352,3.1393,3.1427,3.1471,3.151,3.1558,3.16,3.1616,3.1631,3.1625,3.1625,3.1632,3.1651,3.1646,3.1612,3.1612,3.1612,3.1612,3.1612,3.1612,3.1063,3.1093,3.1122,3.117,3.1204,3.1242,3.1265,3.1298,3.1331,3.138,3.1413,3.1445,3.1489,3.1536,3.1573,3.1586,3.16,3.1591,3.1608,3.1625,3.163,3.1634,3.1629,3.1593,3.1593,3.1587,3.1587,3.1587]}]]